Year,Month,Day,Hour,Minute,Value (Times are PST for temperature in C)
2013,04,22,00,00,4.50
2013,04,22,00,01,4.50
2013,04,22,00,02,4.40
2013,04,22,00,03,4.30
2013,04,22,00,04,4.20
2013,04,22,00,05,4.20
2013,04,22,00,06,4.00
2013,04,22,00,07,4.00
2013,04,22,00,08,3.90
2013,04,22,00,09,3.90
2013,04,22,00,10,3.90
2013,04,22,00,11,3.90
2013,04,22,00,12,4.00
2013,04,22,00,13,4.00
2013,04,22,00,14,4.00
2013,04,22,00,15,4.00
2013,04,22,00,16,4.00
2013,04,22,00,17,4.00
2013,04,22,00,18,4.00
2013,04,22,00,19,3.90
2013,04,22,00,20,3.80
2013,04,22,00,21,3.80
2013,04,22,00,22,3.70
2013,04,22,00,23,3.70
2013,04,22,00,24,3.70
2013,04,22,00,25,3.70
2013,04,22,00,26,3.60
2013,04,22,00,27,3.60
2013,04,22,00,28,3.60
2013,04,22,00,29,3.60
2013,04,22,00,30,3.60
2013,04,22,00,31,3.60
2013,04,22,00,32,3.60
2013,04,22,00,33,3.60
2013,04,22,00,34,3.60
2013,04,22,00,35,3.50
2013,04,22,00,36,3.50
2013,04,22,00,37,3.50
2013,04,22,00,38,3.40
2013,04,22,00,39,3.40
2013,04,22,00,40,3.40
2013,04,22,00,41,3.40
2013,04,22,00,42,3.40
2013,04,22,00,43,3.30
2013,04,22,00,44,3.30
2013,04,22,00,45,3.30
2013,04,22,00,46,3.30
2013,04,22,00,47,3.30
2013,04,22,00,48,3.30
2013,04,22,00,49,3.30
2013,04,22,00,50,3.30
2013,04,22,00,51,3.20
2013,04,22,00,52,3.10
2013,04,22,00,53,3.00
2013,04,22,00,54,2.90
2013,04,22,00,55,2.80
2013,04,22,00,56,2.70
2013,04,22,00,57,2.70
2013,04,22,00,58,2.60
2013,04,22,00,59,2.50
2013,04,22,01,00,2.50
2013,04,22,01,01,2.50
2013,04,22,01,02,2.40
2013,04,22,01,03,2.40
2013,04,22,01,04,2.40
2013,04,22,01,05,2.40
2013,04,22,01,06,2.30
2013,04,22,01,07,2.30
2013,04,22,01,08,2.30
2013,04,22,01,09,2.20
2013,04,22,01,10,2.20
2013,04,22,01,11,2.20
2013,04,22,01,12,2.20
2013,04,22,01,13,2.20
2013,04,22,01,14,2.20
2013,04,22,01,15,2.20
2013,04,22,01,16,2.20
2013,04,22,01,17,2.30
2013,04,22,01,18,2.30
2013,04,22,01,19,2.40
2013,04,22,01,20,2.40
2013,04,22,01,21,2.40
2013,04,22,01,22,2.50
2013,04,22,01,23,2.50
2013,04,22,01,24,2.60
2013,04,22,01,25,2.60
2013,04,22,01,26,2.60
2013,04,22,01,27,2.60
2013,04,22,01,28,2.60
2013,04,22,01,29,2.60
2013,04,22,01,30,2.60
2013,04,22,01,31,2.70
2013,04,22,01,32,2.70
2013,04,22,01,33,2.70
2013,04,22,01,34,2.60
2013,04,22,01,35,2.60
2013,04,22,01,36,2.60
2013,04,22,01,37,2.60
2013,04,22,01,38,2.60
2013,04,22,01,39,2.60
2013,04,22,01,40,2.60
2013,04,22,01,41,2.50
2013,04,22,01,42,2.50
2013,04,22,01,43,2.50
2013,04,22,01,44,2.50
2013,04,22,01,45,2.50
2013,04,22,01,46,2.50
2013,04,22,01,47,2.50
2013,04,22,01,48,2.50
2013,04,22,01,49,2.50
2013,04,22,01,50,2.50
2013,04,22,01,51,2.50
2013,04,22,01,52,2.50
2013,04,22,01,53,2.50
2013,04,22,01,54,2.50
2013,04,22,01,55,2.50
2013,04,22,01,56,2.50
2013,04,22,01,57,2.50
2013,04,22,01,58,2.50
2013,04,22,01,59,2.50
2013,04,22,02,00,2.50
2013,04,22,02,01,2.50
2013,04,22,02,02,2.50
2013,04,22,02,03,2.50
2013,04,22,02,04,2.50
2013,04,22,02,05,2.50
2013,04,22,02,06,2.50
2013,04,22,02,07,2.50
2013,04,22,02,08,2.50
2013,04,22,02,09,2.50
2013,04,22,02,10,2.40
2013,04,22,02,11,2.40
2013,04,22,02,12,2.40
2013,04,22,02,13,2.30
2013,04,22,02,14,2.30
2013,04,22,02,15,2.20
2013,04,22,02,16,2.20
2013,04,22,02,17,2.20
2013,04,22,02,18,2.20
2013,04,22,02,19,2.10
2013,04,22,02,20,2.10
2013,04,22,02,21,2.00
2013,04,22,02,22,2.00
2013,04,22,02,23,2.00
2013,04,22,02,24,2.00
2013,04,22,02,25,2.00
2013,04,22,02,26,2.00
2013,04,22,02,27,1.90
2013,04,22,02,28,1.90
2013,04,22,02,29,1.90
2013,04,22,02,30,1.90
2013,04,22,02,31,2.00
2013,04,22,02,32,2.00
2013,04,22,02,33,1.90
2013,04,22,02,34,1.90
2013,04,22,02,35,1.90
2013,04,22,02,36,1.90
2013,04,22,02,37,1.80
2013,04,22,02,38,1.80
2013,04,22,02,39,1.80
2013,04,22,02,40,1.80
2013,04,22,02,41,1.70
2013,04,22,02,42,1.70
2013,04,22,02,43,1.70
2013,04,22,02,44,1.60
2013,04,22,02,45,1.60
2013,04,22,02,46,1.60
2013,04,22,02,47,1.50
2013,04,22,02,48,1.50
2013,04,22,02,49,1.50
2013,04,22,02,50,1.40
2013,04,22,02,51,1.40
2013,04,22,02,52,1.40
2013,04,22,02,53,1.40
2013,04,22,02,54,1.40
2013,04,22,02,55,1.40
2013,04,22,02,56,1.40
2013,04,22,02,57,1.40
2013,04,22,02,58,1.40
2013,04,22,02,59,1.40
2013,04,22,03,00,1.40
2013,04,22,03,01,1.40
2013,04,22,03,02,1.40
2013,04,22,03,03,1.40
2013,04,22,03,04,1.40
2013,04,22,03,05,1.40
2013,04,22,03,06,1.40
2013,04,22,03,07,1.40
2013,04,22,03,08,1.40
2013,04,22,03,09,1.40
2013,04,22,03,10,1.40
2013,04,22,03,11,1.40
2013,04,22,03,12,1.40
2013,04,22,03,13,1.40
2013,04,22,03,14,1.40
2013,04,22,03,15,1.40
2013,04,22,03,16,1.50
2013,04,22,03,17,1.50
2013,04,22,03,18,1.60
2013,04,22,03,19,1.60
2013,04,22,03,20,1.60
2013,04,22,03,21,1.70
2013,04,22,03,22,1.70
2013,04,22,03,23,1.70
2013,04,22,03,24,1.60
2013,04,22,03,25,1.60
2013,04,22,03,26,1.50
2013,04,22,03,27,1.40
2013,04,22,03,28,1.30
2013,04,22,03,29,1.30
2013,04,22,03,30,1.30
2013,04,22,03,31,1.30
2013,04,22,03,32,1.20
2013,04,22,03,33,1.20
2013,04,22,03,34,1.30
2013,04,22,03,35,1.30
2013,04,22,03,36,1.30
2013,04,22,03,37,1.30
2013,04,22,03,38,1.30
2013,04,22,03,39,1.30
2013,04,22,03,40,1.30
2013,04,22,03,41,1.30
2013,04,22,03,42,1.30
2013,04,22,03,43,1.30
2013,04,22,03,44,1.30
2013,04,22,03,45,1.30
2013,04,22,03,46,1.30
2013,04,22,03,47,1.40
2013,04,22,03,48,1.40
2013,04,22,03,49,1.40
2013,04,22,03,50,1.30
2013,04,22,03,51,1.20
2013,04,22,03,52,1.20
2013,04,22,03,53,1.20
2013,04,22,03,54,1.20
2013,04,22,03,55,1.10
2013,04,22,03,56,1.10
2013,04,22,03,57,1.10
2013,04,22,03,58,1.10
2013,04,22,03,59,1.10
2013,04,22,04,00,1.10
2013,04,22,04,01,1.00
2013,04,22,04,02,1.00
2013,04,22,04,03,1.00
2013,04,22,04,04,1.00
2013,04,22,04,05,1.00
2013,04,22,04,06,1.00
2013,04,22,04,07,0.90
2013,04,22,04,08,0.90
2013,04,22,04,09,0.90
2013,04,22,04,10,0.90
2013,04,22,04,11,0.90
2013,04,22,04,12,0.90
2013,04,22,04,13,0.90
2013,04,22,04,14,0.90
2013,04,22,04,15,0.80
2013,04,22,04,16,0.80
2013,04,22,04,17,0.80
2013,04,22,04,18,0.80
2013,04,22,04,19,0.80
2013,04,22,04,20,0.80
2013,04,22,04,21,0.80
2013,04,22,04,22,0.80
2013,04,22,04,23,0.90
2013,04,22,04,24,0.90
2013,04,22,04,25,0.90
2013,04,22,04,26,0.90
2013,04,22,04,27,0.90
2013,04,22,04,28,0.80
2013,04,22,04,29,0.80
2013,04,22,04,30,0.80
2013,04,22,04,31,0.80
2013,04,22,04,32,0.80
2013,04,22,04,33,0.70
2013,04,22,04,34,0.70
2013,04,22,04,35,0.70
2013,04,22,04,36,0.70
2013,04,22,04,37,0.70
2013,04,22,04,38,0.70
2013,04,22,04,39,0.70
2013,04,22,04,40,0.70
2013,04,22,04,41,0.80
2013,04,22,04,42,0.80
2013,04,22,04,43,0.80
2013,04,22,04,44,0.80
2013,04,22,04,45,0.80
2013,04,22,04,46,0.80
2013,04,22,04,47,0.80
2013,04,22,04,48,0.80
2013,04,22,04,49,0.80
2013,04,22,04,50,0.80
2013,04,22,04,51,0.70
2013,04,22,04,52,0.70
2013,04,22,04,53,0.70
2013,04,22,04,54,0.70
2013,04,22,04,55,0.70
2013,04,22,04,56,0.70
2013,04,22,04,57,0.70
2013,04,22,04,58,0.70
2013,04,22,04,59,0.70
2013,04,22,05,00,0.70
2013,04,22,05,01,0.60
2013,04,22,05,02,0.60
2013,04,22,05,03,0.60
2013,04,22,05,04,0.60
2013,04,22,05,05,0.60
2013,04,22,05,06,0.60
2013,04,22,05,07,0.60
2013,04,22,05,08,0.60
2013,04,22,05,09,0.50
2013,04,22,05,10,0.50
2013,04,22,05,11,0.50
2013,04,22,05,12,0.50
2013,04,22,05,13,0.50
2013,04,22,05,14,0.50
2013,04,22,05,15,0.50
2013,04,22,05,16,0.40
2013,04,22,05,17,0.40
2013,04,22,05,18,0.40
2013,04,22,05,19,0.40
2013,04,22,05,20,0.40
2013,04,22,05,21,0.40
2013,04,22,05,22,0.40
2013,04,22,05,23,0.40
2013,04,22,05,24,0.40
2013,04,22,05,25,0.40
2013,04,22,05,26,0.40
2013,04,22,05,27,0.40
2013,04,22,05,28,0.40
2013,04,22,05,29,0.40
2013,04,22,05,30,0.40
2013,04,22,05,31,0.40
2013,04,22,05,32,0.40
2013,04,22,05,33,0.40
2013,04,22,05,34,0.40
2013,04,22,05,35,0.50
2013,04,22,05,36,0.50
2013,04,22,05,37,0.50
2013,04,22,05,38,0.50
2013,04,22,05,39,0.50
2013,04,22,05,40,0.50
2013,04,22,05,41,0.40
2013,04,22,05,42,0.40
2013,04,22,05,43,0.40
2013,04,22,05,44,0.40
2013,04,22,05,45,0.30
2013,04,22,05,46,0.30
2013,04,22,05,47,0.30
2013,04,22,05,48,0.20
2013,04,22,05,49,0.20
2013,04,22,05,50,0.20
2013,04,22,05,51,0.20
2013,04,22,05,52,0.20
2013,04,22,05,53,0.20
2013,04,22,05,54,0.20
2013,04,22,05,55,0.20
2013,04,22,05,56,0.30
2013,04,22,05,57,0.30
2013,04,22,05,58,0.30
2013,04,22,05,59,0.40
2013,04,22,06,00,0.40
2013,04,22,06,01,0.40
2013,04,22,06,02,0.40
2013,04,22,06,03,0.40
2013,04,22,06,04,0.40
2013,04,22,06,05,0.40
2013,04,22,06,06,0.70
2013,04,22,06,07,0.60
2013,04,22,06,08,0.70
2013,04,22,06,09,0.70
2013,04,22,06,10,0.80
2013,04,22,06,11,0.80
2013,04,22,06,12,0.80
2013,04,22,06,13,0.80
2013,04,22,06,14,0.70
2013,04,22,06,15,0.70
2013,04,22,06,16,0.60
2013,04,22,06,17,0.60
2013,04,22,06,18,0.60
2013,04,22,06,19,0.60
2013,04,22,06,20,0.60
2013,04,22,06,21,0.70
2013,04,22,06,22,0.70
2013,04,22,06,23,0.80
2013,04,22,06,24,0.80
2013,04,22,06,25,0.80
2013,04,22,06,26,0.80
2013,04,22,06,27,0.80
2013,04,22,06,28,0.80
2013,04,22,06,29,0.90
2013,04,22,06,30,1.00
2013,04,22,06,31,0.90
2013,04,22,06,32,0.90
2013,04,22,06,33,0.80
2013,04,22,06,34,0.80
2013,04,22,06,35,0.80
2013,04,22,06,36,0.80
2013,04,22,06,37,0.80
2013,04,22,06,38,0.90
2013,04,22,06,39,0.90
2013,04,22,06,40,1.00
2013,04,22,06,41,1.10
2013,04,22,06,42,1.20
2013,04,22,06,43,1.30
2013,04,22,06,44,1.40
2013,04,22,06,45,1.50
2013,04,22,06,46,1.50
2013,04,22,06,47,1.50
2013,04,22,06,48,1.50
2013,04,22,06,49,1.60
2013,04,22,06,50,1.70
2013,04,22,06,51,1.70
2013,04,22,06,52,1.70
2013,04,22,06,53,1.70
2013,04,22,06,54,1.80
2013,04,22,06,55,1.90
2013,04,22,06,56,2.00
2013,04,22,06,57,2.10
2013,04,22,06,58,2.20
2013,04,22,06,59,2.20
2013,04,22,07,00,2.20
2013,04,22,07,01,2.20
2013,04,22,07,02,2.20
2013,04,22,07,03,2.20
2013,04,22,07,04,2.20
2013,04,22,07,05,2.20
2013,04,22,07,06,2.20
2013,04,22,07,07,2.20
2013,04,22,07,08,2.20
2013,04,22,07,09,2.20
2013,04,22,07,10,2.30
2013,04,22,07,11,2.30
2013,04,22,07,12,2.40
2013,04,22,07,13,2.50
2013,04,22,07,14,2.60
2013,04,22,07,15,2.60
2013,04,22,07,16,2.70
2013,04,22,07,17,2.70
2013,04,22,07,18,2.70
2013,04,22,07,19,2.70
2013,04,22,07,20,2.80
2013,04,22,07,21,2.90
2013,04,22,07,22,2.90
2013,04,22,07,23,3.00
2013,04,22,07,24,3.10
2013,04,22,07,25,3.10
2013,04,22,07,26,3.10
2013,04,22,07,27,3.10
2013,04,22,07,28,3.20
2013,04,22,07,29,3.30
2013,04,22,07,30,3.40
2013,04,22,07,31,3.50
2013,04,22,07,32,3.50
2013,04,22,07,33,3.60
2013,04,22,07,34,3.80
2013,04,22,07,35,3.90
2013,04,22,07,36,4.00
2013,04,22,07,37,4.10
2013,04,22,07,38,4.20
2013,04,22,07,39,4.20
2013,04,22,07,40,4.10
2013,04,22,07,41,4.10
2013,04,22,07,42,4.10
2013,04,22,07,43,4.20
2013,04,22,07,44,4.20
2013,04,22,07,45,4.20
2013,04,22,07,46,4.30
2013,04,22,07,47,4.40
2013,04,22,07,48,4.50
2013,04,22,07,49,4.60
2013,04,22,07,50,4.50
2013,04,22,07,51,4.50
2013,04,22,07,52,4.60
2013,04,22,07,53,4.60
2013,04,22,07,54,4.70
2013,04,22,07,55,4.80
2013,04,22,07,56,4.90
2013,04,22,07,57,5.10
2013,04,22,07,58,5.20
2013,04,22,07,59,5.20
2013,04,22,08,00,5.30
2013,04,22,08,01,5.30
2013,04,22,08,02,5.30
2013,04,22,08,03,5.30
2013,04,22,08,04,5.30
2013,04,22,08,05,5.20
2013,04,22,08,06,5.20
2013,04,22,08,07,5.20
2013,04,22,08,08,5.30
2013,04,22,08,09,5.30
2013,04,22,08,10,5.30
2013,04,22,08,11,5.40
2013,04,22,08,12,5.40
2013,04,22,08,13,5.50
2013,04,22,08,14,5.50
2013,04,22,08,15,5.60
2013,04,22,08,16,5.70
2013,04,22,08,17,5.70
2013,04,22,08,18,5.70
2013,04,22,08,19,5.70
2013,04,22,08,20,5.80
2013,04,22,08,21,5.90
2013,04,22,08,22,5.90
2013,04,22,08,23,6.00
2013,04,22,08,24,6.00
2013,04,22,08,25,6.10
2013,04,22,08,26,6.20
2013,04,22,08,27,6.20
2013,04,22,08,28,6.20
2013,04,22,08,29,6.30
2013,04,22,08,30,6.40
2013,04,22,08,31,6.40
2013,04,22,08,32,6.40
2013,04,22,08,33,6.40
2013,04,22,08,34,6.40
2013,04,22,08,35,6.60
2013,04,22,08,36,6.60
2013,04,22,08,37,6.70
2013,04,22,08,38,6.80
2013,04,22,08,39,6.80
2013,04,22,08,40,6.80
2013,04,22,08,41,6.80
2013,04,22,08,42,6.90
2013,04,22,08,43,7.00
2013,04,22,08,44,7.10
2013,04,22,08,45,7.10
2013,04,22,08,46,7.20
2013,04,22,08,47,7.30
2013,04,22,08,48,7.50
2013,04,22,08,49,7.60
2013,04,22,08,50,7.60
2013,04,22,08,51,7.70
2013,04,22,08,52,7.70
2013,04,22,08,53,7.80
2013,04,22,08,54,7.80
2013,04,22,08,55,7.80
2013,04,22,08,56,7.90
2013,04,22,08,57,8.00
2013,04,22,08,58,8.00
2013,04,22,08,59,8.10
2013,04,22,09,00,8.10
2013,04,22,09,01,8.20
2013,04,22,09,02,8.20
2013,04,22,09,03,8.20
2013,04,22,09,04,8.20
2013,04,22,09,05,8.10
2013,04,22,09,06,8.10
2013,04,22,09,07,8.10
2013,04,22,09,08,8.10
2013,04,22,09,09,8.20
2013,04,22,09,10,8.30
2013,04,22,09,11,8.30
2013,04,22,09,12,8.40
2013,04,22,09,13,8.50
2013,04,22,09,14,8.40
2013,04,22,09,15,8.40
2013,04,22,09,16,8.40
2013,04,22,09,17,8.40
2013,04,22,09,18,8.40
2013,04,22,09,19,8.40
2013,04,22,09,20,8.50
2013,04,22,09,21,8.60
2013,04,22,09,22,8.70
2013,04,22,09,23,8.70
2013,04,22,09,24,8.70
2013,04,22,09,25,8.70
2013,04,22,09,26,8.80
2013,04,22,09,27,8.90
2013,04,22,09,28,9.00
2013,04,22,09,29,9.00
2013,04,22,09,30,9.10
2013,04,22,09,31,9.10
2013,04,22,09,32,9.10
2013,04,22,09,33,9.10
2013,04,22,09,34,9.10
2013,04,22,09,35,9.10
2013,04,22,09,36,9.10
2013,04,22,09,37,9.20
2013,04,22,09,38,9.30
2013,04,22,09,39,9.30
2013,04,22,09,40,9.40
2013,04,22,09,41,9.30
2013,04,22,09,42,9.40
2013,04,22,09,43,9.40
2013,04,22,09,44,9.50
2013,04,22,09,45,9.50
2013,04,22,09,46,9.50
2013,04,22,09,47,9.40
2013,04,22,09,48,9.40
2013,04,22,09,49,9.30
2013,04,22,09,50,9.20
2013,04,22,09,51,9.30
2013,04,22,09,52,9.40
2013,04,22,09,53,9.40
2013,04,22,09,54,9.40
2013,04,22,09,55,9.40
2013,04,22,09,56,9.40
2013,04,22,09,57,9.50
2013,04,22,09,58,9.70
2013,04,22,09,59,9.70
2013,04,22,10,00,9.80
2013,04,22,10,01,9.80
2013,04,22,10,02,9.90
2013,04,22,10,03,10.00
2013,04,22,10,04,10.10
2013,04,22,10,05,10.20
2013,04,22,10,06,10.20
2013,04,22,10,07,10.20
2013,04,22,10,08,10.30
2013,04,22,10,09,10.20
2013,04,22,10,10,10.10
2013,04,22,10,11,10.10
2013,04,22,10,12,10.20
2013,04,22,10,13,10.30
2013,04,22,10,14,10.30
2013,04,22,10,15,10.40
2013,04,22,10,16,10.40
2013,04,22,10,17,10.40
2013,04,22,10,18,10.40
2013,04,22,10,19,10.40
2013,04,22,10,20,10.40
2013,04,22,10,21,10.50
2013,04,22,10,22,10.60
2013,04,22,10,23,10.60
2013,04,22,10,24,10.60
2013,04,22,10,25,10.60
2013,04,22,10,26,10.70
2013,04,22,10,27,10.70
2013,04,22,10,28,10.60
2013,04,22,10,29,10.40
2013,04,22,10,30,10.30
2013,04,22,10,31,10.20
2013,04,22,10,32,10.10
2013,04,22,10,33,10.10
2013,04,22,10,34,10.10
2013,04,22,10,35,10.20
2013,04,22,10,36,10.20
2013,04,22,10,37,10.20
2013,04,22,10,38,10.10
2013,04,22,10,39,10.10
2013,04,22,10,40,10.10
2013,04,22,10,41,10.20
2013,04,22,10,42,10.20
2013,04,22,10,43,10.20
2013,04,22,10,44,10.20
2013,04,22,10,45,10.20
2013,04,22,10,46,10.10
2013,04,22,10,47,10.10
2013,04,22,10,48,10.10
2013,04,22,10,49,10.10
2013,04,22,10,50,10.10
2013,04,22,10,51,10.10
2013,04,22,10,52,10.10
2013,04,22,10,53,10.10
2013,04,22,10,54,10.10
2013,04,22,10,55,10.10
2013,04,22,10,56,10.10
2013,04,22,10,57,10.10
2013,04,22,10,58,10.10
2013,04,22,10,59,10.10
2013,04,22,11,00,10.10
2013,04,22,11,01,10.00
2013,04,22,11,02,9.90
2013,04,22,11,03,9.90
2013,04,22,11,04,9.90
2013,04,22,11,05,9.90
2013,04,22,11,06,10.00
2013,04,22,11,07,10.10
2013,04,22,11,08,10.10
2013,04,22,11,09,10.20
2013,04,22,11,10,10.20
2013,04,22,11,11,10.20
2013,04,22,11,12,10.20
2013,04,22,11,13,10.30
2013,04,22,11,14,10.30
2013,04,22,11,15,10.30
2013,04,22,11,16,10.30
2013,04,22,11,17,10.10
2013,04,22,11,18,10.10
2013,04,22,11,19,10.10
2013,04,22,11,20,10.10
2013,04,22,11,21,10.20
2013,04,22,11,22,10.20
2013,04,22,11,23,10.10
2013,04,22,11,24,10.20
2013,04,22,11,25,10.20
2013,04,22,11,26,10.20
2013,04,22,11,27,10.10
2013,04,22,11,28,10.10
2013,04,22,11,29,10.10
2013,04,22,11,30,10.00
2013,04,22,11,31,9.90
2013,04,22,11,32,10.00
2013,04,22,11,33,10.10
2013,04,22,11,34,10.10
2013,04,22,11,35,10.10
2013,04,22,11,36,10.10
2013,04,22,11,37,10.10
2013,04,22,11,38,10.20
2013,04,22,11,39,10.10
2013,04,22,11,40,10.10
2013,04,22,11,41,10.30
2013,04,22,11,42,10.40
2013,04,22,11,43,10.40
2013,04,22,11,44,10.40
2013,04,22,11,45,10.50
2013,04,22,11,46,10.60
2013,04,22,11,47,10.70
2013,04,22,11,48,10.70
2013,04,22,11,49,10.80
2013,04,22,11,50,10.80
2013,04,22,11,51,10.70
2013,04,22,11,52,10.80
2013,04,22,11,53,10.70
2013,04,22,11,54,10.60
2013,04,22,11,55,10.60
2013,04,22,11,56,10.80
2013,04,22,11,57,10.90
2013,04,22,11,58,11.00
2013,04,22,11,59,11.10
2013,04,22,12,00,11.10
2013,04,22,12,01,11.00
2013,04,22,12,02,10.80
2013,04,22,12,03,10.60
2013,04,22,12,04,10.60
2013,04,22,12,05,10.60
2013,04,22,12,06,10.50
2013,04,22,12,07,10.50
2013,04,22,12,08,10.40
2013,04,22,12,09,10.40
2013,04,22,12,10,10.40
2013,04,22,12,11,10.40
2013,04,22,12,12,10.40
2013,04,22,12,13,10.40
2013,04,22,12,14,10.30
2013,04,22,12,15,10.30
2013,04,22,12,16,10.30
2013,04,22,12,17,10.40
2013,04,22,12,18,10.40
2013,04,22,12,19,10.40
2013,04,22,12,20,10.50
2013,04,22,12,21,10.70
2013,04,22,12,22,10.80
2013,04,22,12,23,10.90
2013,04,22,12,24,11.00
2013,04,22,12,25,11.10
2013,04,22,12,26,11.10
2013,04,22,12,27,11.10
2013,04,22,12,28,11.10
2013,04,22,12,29,11.00
2013,04,22,12,30,10.90
2013,04,22,12,31,10.90
2013,04,22,12,32,11.00
2013,04,22,12,33,11.10
2013,04,22,12,34,11.10
2013,04,22,12,35,11.20
2013,04,22,12,36,11.20
2013,04,22,12,37,11.00
2013,04,22,12,38,10.90
2013,04,22,12,39,10.90
2013,04,22,12,40,11.00
2013,04,22,12,41,11.10
2013,04,22,12,42,11.20
2013,04,22,12,43,11.20
2013,04,22,12,44,11.30
2013,04,22,12,45,11.30
2013,04,22,12,46,11.30
2013,04,22,12,47,11.40
2013,04,22,12,48,11.40
2013,04,22,12,49,11.40
2013,04,22,12,50,11.40
2013,04,22,12,51,11.50
2013,04,22,12,52,11.60
2013,04,22,12,53,11.50
2013,04,22,12,54,11.60
2013,04,22,12,55,11.70
2013,04,22,12,56,11.80
2013,04,22,12,57,11.90
2013,04,22,12,58,12.00
2013,04,22,12,59,12.00
2013,04,22,13,00,12.00
2013,04,22,13,01,12.00
2013,04,22,13,02,12.10
2013,04,22,13,03,12.20
2013,04,22,13,04,12.30
2013,04,22,13,05,12.30
2013,04,22,13,06,12.10
2013,04,22,13,07,11.80
2013,04,22,13,08,11.70
2013,04,22,13,09,11.70
2013,04,22,13,10,11.80
2013,04,22,13,11,11.80
2013,04,22,13,12,11.70
2013,04,22,13,13,11.70
2013,04,22,13,14,11.70
2013,04,22,13,15,11.60
2013,04,22,13,16,11.60
2013,04,22,13,17,11.60
2013,04,22,13,18,11.60
2013,04,22,13,19,11.70
2013,04,22,13,20,11.80
2013,04,22,13,21,11.90
2013,04,22,13,22,11.90
2013,04,22,13,23,11.90
2013,04,22,13,24,11.80
2013,04,22,13,25,11.80
2013,04,22,13,26,11.80
2013,04,22,13,27,11.90
2013,04,22,13,28,12.00
2013,04,22,13,29,12.00
2013,04,22,13,30,12.00
2013,04,22,13,31,12.00
2013,04,22,13,32,12.00
2013,04,22,13,33,12.00
2013,04,22,13,34,12.10
2013,04,22,13,35,12.20
2013,04,22,13,36,12.30
2013,04,22,13,37,12.20
2013,04,22,13,38,12.20
2013,04,22,13,39,12.30
2013,04,22,13,40,12.10
2013,04,22,13,41,12.00
2013,04,22,13,42,12.10
2013,04,22,13,43,12.20
2013,04,22,13,44,12.30
2013,04,22,13,45,12.30
2013,04,22,13,46,12.30
2013,04,22,13,47,12.30
2013,04,22,13,48,12.20
2013,04,22,13,49,12.20
2013,04,22,13,50,12.20
2013,04,22,13,51,12.20
2013,04,22,13,52,12.20
2013,04,22,13,53,12.10
2013,04,22,13,54,11.90
2013,04,22,13,55,11.80
2013,04,22,13,56,11.80
2013,04,22,13,57,11.90
2013,04,22,13,58,11.90
2013,04,22,13,59,11.70
2013,04,22,14,00,11.60
2013,04,22,14,01,11.60
2013,04,22,14,02,11.60
2013,04,22,14,03,11.60
2013,04,22,14,04,11.50
2013,04,22,14,05,11.40
2013,04,22,14,06,11.40
2013,04,22,14,07,11.50
2013,04,22,14,08,11.60
2013,04,22,14,09,11.60
2013,04,22,14,10,11.60
2013,04,22,14,11,11.60
2013,04,22,14,12,11.60
2013,04,22,14,13,11.80
2013,04,22,14,14,11.80
2013,04,22,14,15,11.80
2013,04,22,14,16,11.90
2013,04,22,14,17,12.00
2013,04,22,14,18,12.10
2013,04,22,14,19,12.20
2013,04,22,14,20,12.30
2013,04,22,14,21,12.40
2013,04,22,14,22,12.50
2013,04,22,14,23,12.50
2013,04,22,14,24,12.40
2013,04,22,14,25,12.50
2013,04,22,14,26,12.40
2013,04,22,14,27,12.40
2013,04,22,14,28,12.30
2013,04,22,14,29,12.30
2013,04,22,14,30,12.30
2013,04,22,14,31,12.30
2013,04,22,14,32,12.20
2013,04,22,14,33,12.10
2013,04,22,14,34,12.10
2013,04,22,14,35,12.10
2013,04,22,14,36,12.00
2013,04,22,14,37,12.10
2013,04,22,14,38,12.20
2013,04,22,14,39,12.40
2013,04,22,14,40,12.50
2013,04,22,14,41,12.60
2013,04,22,14,42,12.70
2013,04,22,14,43,12.80
2013,04,22,14,44,12.90
2013,04,22,14,45,12.90
2013,04,22,14,46,13.00
2013,04,22,14,47,13.00
2013,04,22,14,48,13.00
2013,04,22,14,49,12.90
2013,04,22,14,50,12.70
2013,04,22,14,51,12.60
2013,04,22,14,52,12.60
2013,04,22,14,53,12.60
2013,04,22,14,54,12.50
2013,04,22,14,55,12.50
2013,04,22,14,56,12.50
2013,04,22,14,57,12.50
2013,04,22,14,58,12.60
2013,04,22,14,59,12.60
2013,04,22,15,00,12.60
2013,04,22,15,01,12.80
2013,04,22,15,02,12.70
2013,04,22,15,03,12.60
2013,04,22,15,04,12.60
2013,04,22,15,05,12.70
2013,04,22,15,06,12.60
2013,04,22,15,07,12.60
2013,04,22,15,08,12.70
2013,04,22,15,09,12.70
2013,04,22,15,10,12.80
2013,04,22,15,11,12.70
2013,04,22,15,12,12.70
2013,04,22,15,13,12.60
2013,04,22,15,14,12.40
2013,04,22,15,15,12.30
2013,04,22,15,16,12.30
2013,04,22,15,17,12.30
2013,04,22,15,18,12.30
2013,04,22,15,19,12.30
2013,04,22,15,20,12.40
2013,04,22,15,21,12.50
2013,04,22,15,22,12.60
2013,04,22,15,23,12.80
2013,04,22,15,24,12.90
2013,04,22,15,25,13.00
2013,04,22,15,26,13.00
2013,04,22,15,27,13.10
2013,04,22,15,28,13.10
2013,04,22,15,29,13.20
2013,04,22,15,30,13.20
2013,04,22,15,31,13.30
2013,04,22,15,32,13.10
2013,04,22,15,33,13.20
2013,04,22,15,34,13.10
2013,04,22,15,35,13.20
2013,04,22,15,36,13.20
2013,04,22,15,37,13.20
2013,04,22,15,38,13.20
2013,04,22,15,39,13.20
2013,04,22,15,40,13.30
2013,04,22,15,41,13.30
2013,04,22,15,42,13.30
2013,04,22,15,43,13.30
2013,04,22,15,44,13.30
2013,04,22,15,45,13.30
2013,04,22,15,46,13.30
2013,04,22,15,47,13.30
2013,04,22,15,48,13.20
2013,04,22,15,49,13.10
2013,04,22,15,50,13.00
2013,04,22,15,51,13.10
2013,04,22,15,52,13.10
2013,04,22,15,53,13.20
2013,04,22,15,54,13.30
2013,04,22,15,55,13.40
2013,04,22,15,56,13.50
2013,04,22,15,57,13.50
2013,04,22,15,58,13.50
2013,04,22,15,59,13.60
2013,04,22,16,00,13.60
2013,04,22,16,01,13.70
2013,04,22,16,02,13.60
2013,04,22,16,03,13.40
2013,04,22,16,04,13.30
2013,04,22,16,05,13.30
2013,04,22,16,06,13.20
2013,04,22,16,07,13.20
2013,04,22,16,08,13.20
2013,04,22,16,09,13.10
2013,04,22,16,10,13.10
2013,04,22,16,11,13.10
2013,04,22,16,12,13.10
2013,04,22,16,13,13.00
2013,04,22,16,14,12.80
2013,04,22,16,15,12.80
2013,04,22,16,16,12.70
2013,04,22,16,17,12.50
2013,04,22,16,18,12.30
2013,04,22,16,19,12.30
2013,04,22,16,20,12.30
2013,04,22,16,21,12.30
2013,04,22,16,22,12.40
2013,04,22,16,23,12.50
2013,04,22,16,24,12.50
2013,04,22,16,25,12.50
2013,04,22,16,26,12.60
2013,04,22,16,27,12.60
2013,04,22,16,28,12.50
2013,04,22,16,29,12.50
2013,04,22,16,30,12.50
2013,04,22,16,31,12.40
2013,04,22,16,32,12.40
2013,04,22,16,33,12.50
2013,04,22,16,34,12.60
2013,04,22,16,35,12.70
2013,04,22,16,36,12.60
2013,04,22,16,37,12.60
2013,04,22,16,38,12.70
2013,04,22,16,39,12.70
2013,04,22,16,40,12.60
2013,04,22,16,41,12.60
2013,04,22,16,42,12.40
2013,04,22,16,43,12.50
2013,04,22,16,44,12.60
2013,04,22,16,45,12.70
2013,04,22,16,46,12.70
2013,04,22,16,47,12.70
2013,04,22,16,48,12.70
2013,04,22,16,49,12.60
2013,04,22,16,50,12.50
2013,04,22,16,51,12.40
2013,04,22,16,52,12.50
2013,04,22,16,53,12.60
2013,04,22,16,54,12.70
2013,04,22,16,55,12.80
2013,04,22,16,56,12.80
2013,04,22,16,57,12.80
2013,04,22,16,58,12.80
2013,04,22,16,59,12.80
2013,04,22,17,00,12.90
2013,04,22,17,01,12.90
2013,04,22,17,02,12.90
2013,04,22,17,03,12.80
2013,04,22,17,04,12.80
2013,04,22,17,05,12.80
2013,04,22,17,06,12.70
2013,04,22,17,07,12.80
2013,04,22,17,08,12.80
2013,04,22,17,09,12.80
2013,04,22,17,10,12.70
2013,04,22,17,11,12.70
2013,04,22,17,12,12.60
2013,04,22,17,13,12.60
2013,04,22,17,14,12.60
2013,04,22,17,15,12.70
2013,04,22,17,16,12.70
2013,04,22,17,17,12.70
2013,04,22,17,18,12.70
2013,04,22,17,19,12.60
2013,04,22,17,20,12.60
2013,04,22,17,21,12.60
2013,04,22,17,22,12.70
2013,04,22,17,23,12.70
2013,04,22,17,24,12.80
2013,04,22,17,25,13.00
2013,04,22,17,26,13.00
2013,04,22,17,27,13.10
2013,04,22,17,28,13.00
2013,04,22,17,29,13.00
2013,04,22,17,30,13.10
2013,04,22,17,31,13.20
2013,04,22,17,32,13.20
2013,04,22,17,33,13.30
2013,04,22,17,34,13.30
2013,04,22,17,35,13.30
2013,04,22,17,36,13.30
2013,04,22,17,37,13.30
2013,04,22,17,38,13.30
2013,04,22,17,39,13.30
2013,04,22,17,40,13.30
2013,04,22,17,41,13.30
2013,04,22,17,42,13.30
2013,04,22,17,43,13.20
2013,04,22,17,44,13.10
2013,04,22,17,45,13.00